シェパード-ジューイット彗星

452P/Sheppard-Jewitt (2023)

English version
Home page
Updated on May 13, 2024

---------------------------------------------------------------------

・ プロフィール

符号 452P/2022 B5

・ 写真集

・ 軌道要素

Epoch 2023 Feb. 25.0 TT = JDT 2460000.5
T 2023 Apr. 25.67671 TT                                 Rudenko
q   4.1781704            (2000.0)            P               Q
n   0.05002549     Peri.   37.05220     -0.94095186     -0.32549802
a   7.2947179      Node   123.69935     +0.27757664     -0.89915415
e   0.4272335      Incl.    6.42251     +0.19380611     -0.29252837
P  19.7
>From 188 observations 2003 Feb. 2-2023 Feb. 27, mean residual 0".8.

・ 光度変化

        m1 = 6.0 + 5 logΔ + 15.0 log r(t + 300)

---------------------------------------------------------------------

軌道要素はM.P.E.C. 2023-D72に掲載されたものです。
光度グラフはComet for Windowsで作成したものです。

---------------------------------------------------------------------

Copyright(C) Seiichi Yoshida (comet@aerith.net). All rights reserved.